| time (UTC) | temp F | wind direction | speed MPH | gust MPH | rain 1hr in | rain 24hr in | rain mn in | humidity % | barometer mb |
| 20260901003613 | 74 | 224 | 0.0 | 2.0 | 0.00 | 0.26 | 0.26 | 65 | 1019.9 |
| 20260901003112 | 74 | 224 | 0.0 | 2.0 | 0.00 | 0.26 | 0.26 | 65 | 1020.0 |
| 20260901002611 | 74 | 224 | 1.0 | 2.0 | 0.00 | 0.26 | 0.26 | 64 | 1020.0 |
| 20260901002111 | 74 | 224 | 1.0 | 3.0 | 0.00 | 0.26 | 0.26 | 64 | 1019.9 |
| 20260901001609 | 75 | 188 | 1.0 | 3.0 | 0.00 | 0.26 | 0.26 | 64 | 1019.9 |
| 20260901000609 | 75 | 188 | 1.0 | 3.0 | 0.00 | 0.26 | 0.26 | 64 | 1020.0 |
| 20260901000107 | 75 | 188 | 1.0 | 3.0 | 0.00 | 0.26 | 0.26 | 62 | 1020.1 |
| 20260831235606 | 76 | 194 | 0.0 | 2.0 | 0.00 | 0.26 | 0.26 | 63 | 1020.2 |
| 20260831235105 | 76 | 194 | 0.0 | 2.0 | 0.00 | 0.26 | 0.26 | 62 | 1020.4 |
| 20260831234105 | 77 | 194 | 0.0 | 0.0 | 0.00 | 0.26 | 0.26 | 62 | 1020.6 |
| 20260831233603 | 77 | 194 | 0.0 | 1.0 | 0.00 | 0.26 | 0.26 | 62 | 1020.6 |
| 20260831233101 | 77 | 194 | 0.0 | 1.0 | 0.00 | 0.26 | 0.26 | 60 | 1020.6 |
| 20260831232059 | 78 | 194 | 0.0 | 3.0 | 0.00 | 0.26 | 0.26 | 56 | 1020.7 |
| 20260831231556 | 79 | 153 | 0.0 | 1.0 | 0.00 | 0.26 | 0.26 | 58 | 1020.6 |
| 20260831231057 | 79 | 165 | 0.0 | 0.0 | 0.00 | 0.26 | 0.26 | 59 | 1020.7 |
| 20260831230554 | 79 | 117 | 0.0 | 2.0 | 0.00 | 0.26 | 0.26 | 57 | 1020.7 |
| 20260831230055 | 79 | 117 | 0.0 | 3.0 | 0.00 | 0.26 | 0.26 | 56 | 1020.7 |
| 20260831225552 | 78 | 117 | 0.0 | 3.0 | 0.00 | 0.26 | 0.26 | 57 | 1021.0 |
| 20260831225053 | 78 | 117 | 0.0 | 2.0 | 0.00 | 0.26 | 0.26 | 57 | 1021.0 |
| 20260831224550 | 77 | 116 | 0.0 | 2.0 | 0.00 | 0.26 | 0.26 | 64 | 1021.0 |
| 20260831224053 | 77 | 31 | 0.0 | 2.0 | 0.00 | 0.26 | 0.26 | 61 | 1021.1 |
| 20260831223550 | 77 | 143 | 0.0 | 2.0 | 0.00 | 0.26 | 0.26 | 61 | 1021.1 |
| 20260831223051 | 76 | 65 | 0.0 | 2.0 | 0.00 | 0.26 | 0.26 | 61 | 1021.3 |
| 20260831222550 | 76 | 19 | 0.0 | 2.0 | 0.00 | 0.26 | 0.26 | 62 | 1021.3 |
| 20260831222051 | 76 | 42 | 0.0 | 2.0 | 0.00 | 0.26 | 0.26 | 60 | 1021.3 |
| 20260831221048 | 78 | 107 | 1.0 | 3.0 | 0.00 | 0.26 | 0.26 | 59 | 1021.4 |
| 20260831220542 | 78 | 151 | 1.0 | 3.0 | 0.00 | 0.26 | 0.26 | 59 | 1021.4 |
| 20260831220043 | 78 | 158 | 1.0 | 3.0 | 0.00 | 0.26 | 0.26 | 56 | 1021.5 |
| 20260831215545 | 79 | 155 | 1.0 | 3.0 | 0.00 | 0.26 | 0.26 | 57 | 1021.5 |
| 20260831215045 | 79 | 152 | 1.0 | 3.0 | 0.00 | 0.26 | 0.26 | 59 | 1021.6 |
| 20260831214543 | 78 | 117 | 0.0 | 3.0 | 0.00 | 0.26 | 0.26 | 60 | 1021.7 |
| 20260831214038 | 78 | 128 | 1.0 | 3.0 | 0.00 | 0.26 | 0.26 | 61 | 1021.7 |
| 20260831213538 | 78 | 136 | 1.0 | 3.0 | 0.00 | 0.26 | 0.26 | 60 | 1021.7 |
| 20260831213036 | 78 | 136 | 1.0 | 3.0 | 0.00 | 0.26 | 0.26 | 61 | 1021.7 |
| 20260831212535 | 78 | 152 | 1.0 | 3.0 | 0.00 | 0.26 | 0.26 | 62 | 1021.8 |
| 20260831211529 | 76 | 107 | 1.0 | 3.0 | 0.00 | 0.26 | 0.26 | 67 | 1021.8 |
| 20260831211028 | 76 | 149 | 1.0 | 3.0 | 0.00 | 0.26 | 0.26 | 68 | 1021.9 |
| 20260831210529 | 75 | 113 | 0.0 | 2.0 | 0.00 | 0.26 | 0.26 | 69 | 1021.9 |
| 20260831210029 | 75 | 96 | 0.0 | 1.0 | 0.00 | 0.26 | 0.26 | 68 | 1022.2 |
| 20260831205526 | 75 | 49 | 0.0 | 1.0 | 0.00 | 0.26 | 0.26 | 68 | 1022.3 |
| 20260831204525 | 74 | 41 | 1.0 | 3.0 | 0.00 | 0.26 | 0.26 | 68 | 1022.5 |
| 20260831204025 | 74 | 30 | 1.0 | 3.0 | 0.00 | 0.26 | 0.26 | 69 | 1022.6 |
| 20260831203524 | 74 | 38 | 1.0 | 3.0 | 0.00 | 0.26 | 0.26 | 68 | 1022.6 |
| 20260831203024 | 74 | 35 | 0.0 | 2.0 | 0.00 | 0.26 | 0.26 | 68 | 1022.6 |
| 20260831202524 | 73 | 26 | 0.0 | 3.0 | 0.00 | 0.26 | 0.26 | 71 | 1022.6 |
| 20260831202025 | 73 | 26 | 1.0 | 3.0 | 0.00 | 0.26 | 0.26 | 69 | 1022.6 |
| 20260831201525 | 73 | 32 | 0.0 | 3.0 | 0.00 | 0.26 | 0.26 | 70 | 1022.7 |
| 20260831201024 | 73 | 34 | 0.0 | 0.0 | 0.00 | 0.26 | 0.26 | 71 | 1022.6 |
| 20260831200525 | 73 | 30 | 0.0 | 2.0 | 0.00 | 0.26 | 0.26 | 70 | 1022.6 |
| 20260831200025 | 73 | 30 | 0.0 | 2.0 | 0.00 | 0.26 | 0.26 | 70 | 1022.7 |
| 20260831195525 | 73 | 38 | 0.0 | 2.0 | 0.00 | 0.26 | 0.26 | 70 | 1022.8 |
| 20260831195024 | 73 | 38 | 0.0 | 2.0 | 0.00 | 0.26 | 0.26 | 69 | 1022.8 |
| 20260831194525 | 73 | 34 | 0.0 | 3.0 | 0.00 | 0.26 | 0.26 | 68 | 1022.8 |
| 20260831194024 | 74 | 34 | 0.0 | 3.0 | 0.00 | 0.26 | 0.26 | 70 | 1022.8 |
| 20260831193525 | 74 | 44 | 0.0 | 1.0 | 0.00 | 0.26 | 0.26 | 70 | 1022.8 |
| 20260831193025 | 73 | 84 | 0.0 | 1.0 | 0.00 | 0.26 | 0.26 | 72 | 1022.8 |
| 20260831192524 | 73 | 84 | 0.0 | 1.0 | 0.00 | 0.26 | 0.26 | 69 | 1022.8 |
| 20260831192024 | 73 | 96 | 0.0 | 1.0 | 0.00 | 0.26 | 0.26 | 70 | 1022.8 |
| 20260831191525 | 73 | 59 | 0.0 | 0.0 | 0.00 | 0.26 | 0.26 | 71 | 1022.8 |
| 20260831191025 | 73 | 153 | 0.0 | 0.0 | 0.00 | 0.26 | 0.26 | 70 | 1022.8 |
| 20260831190525 | 72 | 153 | 0.0 | 1.0 | 0.00 | 0.26 | 0.26 | 72 | 1022.8 |
| 20260831185526 | 72 | 153 | 0.0 | 2.0 | 0.00 | 0.26 | 0.26 | 72 | 1023.0 |
| 20260831185024 | 72 | 153 | 1.0 | 3.0 | 0.00 | 0.26 | 0.26 | 72 | 1023.1 |
| 20260831184524 | 72 | 153 | 1.0 | 3.0 | 0.00 | 0.26 | 0.26 | 73 | 1023.1 |
| 20260831183525 | 72 | 118 | 1.0 | 2.0 | 0.00 | 0.26 | 0.26 | 73 | 1023.2 |
| 20260831183024 | 72 | 118 | 1.0 | 2.0 | 0.00 | 0.26 | 0.26 | 73 | 1023.3 |
| 20260831182524 | 72 | 144 | 1.0 | 2.0 | 0.00 | 0.26 | 0.26 | 74 | 1023.2 |
| 20260831182024 | 72 | 144 | 0.0 | 2.0 | 0.00 | 0.26 | 0.26 | 73 | 1023.2 |
| 20260831181525 | 72 | 131 | 0.0 | 2.0 | 0.00 | 0.26 | 0.26 | 73 | 1023.2 |
| 20260831180524 | 71 | 59 | 1.0 | 6.0 | 0.00 | 0.26 | 0.26 | 73 | 1023.2 |
| 20260831175524 | 71 | 281 | 0.0 | 0.0 | 0.00 | 0.26 | 0.26 | 77 | 1023.2 |
| 20260831175025 | 71 | 281 | 0.0 | 2.0 | 0.00 | 0.26 | 0.26 | 76 | 1023.2 |
| 20260831173524 | 71 | 309 | 0.0 | 3.0 | 0.00 | 0.26 | 0.26 | 76 | 1023.3 |
| 20260831173025 | 70 | 303 | 0.0 | 3.0 | 0.00 | 0.26 | 0.26 | 76 | 1023.3 |
| 20260831172524 | 70 | 97 | 0.0 | 3.0 | 0.00 | 0.26 | 0.26 | 78 | 1023.4 |
| 20260831172024 | 70 | 97 | 0.0 | 3.0 | 0.00 | 0.26 | 0.26 | 79 | 1023.5 |
| 20260831171524 | 69 | 61 | 0.0 | 2.0 | 0.00 | 0.26 | 0.26 | 79 | 1023.4 |
| 20260831171025 | 68 | 110 | 0.0 | 0.0 | 0.00 | 0.26 | 0.26 | 81 | 1023.5 |
| 20260831170524 | 68 | 110 | 0.0 | 0.0 | 0.00 | 0.26 | 0.26 | 82 | 1023.6 |
| 20260831170024 | 67 | 110 | 0.0 | 0.0 | 0.00 | 0.26 | 0.26 | 82 | 1023.6 |
| 20260831165525 | 67 | 110 | 0.0 | 0.0 | 0.00 | 0.26 | 0.26 | 81 | 1023.6 |
| 20260831165025 | 67 | 110 | 0.0 | 0.0 | 0.00 | 0.26 | 0.26 | 84 | 1023.8 |
| 20260831164520 | 66 | 110 | 0.0 | 0.0 | 0.00 | 0.26 | 0.26 | 83 | 1023.5 |
| 20260831164021 | 65 | 110 | 0.0 | 0.0 | 0.00 | 0.26 | 0.26 | 82 | 1023.6 |
| 20260831163520 | 65 | 110 | 0.0 | 0.0 | 0.00 | 0.26 | 0.26 | 83 | 1023.5 |
| 20260831163020 | 65 | 110 | 0.0 | 0.0 | 0.00 | 0.28 | 0.26 | 82 | 1023.5 |
| 20260831162520 | 65 | 110 | 0.0 | 0.0 | 0.00 | 0.29 | 0.26 | 82 | 1023.4 |
| 20260831162021 | 65 | 110 | 0.0 | 0.0 | 0.00 | 0.29 | 0.26 | 81 | 1023.3 |
| 20260831161014 | 65 | 110 | 1.0 | 5.0 | 0.00 | 0.29 | 0.26 | 79 | 1022.8 |
| 20260831160512 | 65 | 89 | 2.0 | 5.0 | 0.00 | 0.29 | 0.26 | 78 | 1022.3 |
| 20260831160012 | 65 | 81 | 1.0 | 4.0 | 0.00 | 0.30 | 0.26 | 78 | 1022.6 |
| 20260831155510 | 65 | 93 | 1.0 | 3.0 | 0.00 | 0.30 | 0.26 | 79 | 1022.8 |
| 20260831155009 | 65 | 117 | 0.0 | 2.0 | 0.00 | 0.30 | 0.26 | 80 | 1023.0 |
| 20260831154505 | 65 | 152 | 0.0 | 0.0 | 0.00 | 0.30 | 0.26 | 83 | 1023.0 |
| 20260831154000 | 65 | 238 | 0.0 | 0.0 | 0.00 | 0.30 | 0.26 | 83 | 1023.0 |
| 20260831153458 | 64 | 238 | 0.0 | 0.0 | 0.00 | 0.30 | 0.26 | 81 | 1022.8 |
| 20260831152958 | 64 | 238 | 0.0 | 0.0 | 0.00 | 0.30 | 0.26 | 82 | 1022.8 |
| 20260831151459 | 64 | 238 | 0.0 | 0.0 | 0.00 | 0.30 | 0.26 | 83 | 1022.8 |
| 20260831150954 | 64 | 238 | 0.0 | 0.0 | 0.00 | 0.30 | 0.26 | 83 | 1022.6 |
| 20260831145953 | 64 | 238 | 0.0 | 0.0 | 0.00 | 0.30 | 0.26 | 83 | 1022.6 |
| 20260831145453 | 63 | 238 | 0.0 | 0.0 | 0.00 | 0.30 | 0.26 | 84 | 1022.5 |
| 20260831144950 | 63 | 238 | 0.0 | 0.0 | 0.00 | 0.30 | 0.26 | 84 | 1022.6 |
| 20260831144451 | 63 | 238 | 0.0 | 0.0 | 0.00 | 0.30 | 0.26 | 84 | 1022.5 |
| 20260831143949 | 63 | 238 | 0.0 | 0.0 | 0.00 | 0.30 | 0.26 | 84 | 1022.4 |
| 20260831142947 | 63 | 238 | 0.0 | 0.0 | 0.00 | 0.30 | 0.26 | 83 | 1022.2 |
| 20260831142446 | 63 | 238 | 0.0 | 0.0 | 0.00 | 0.30 | 0.26 | 83 | 1022.1 |
| 20260831141946 | 63 | 238 | 0.0 | 0.0 | 0.00 | 0.30 | 0.26 | 83 | 1021.9 |
| 20260831141447 | 63 | 238 | 0.0 | 0.0 | 0.00 | 0.30 | 0.26 | 83 | 1022.1 |
| 20260831140947 | 63 | 238 | 0.0 | 0.0 | 0.00 | 0.30 | 0.26 | 82 | 1021.8 |
| 20260831140445 | 63 | 238 | 0.0 | 0.0 | 0.00 | 0.30 | 0.26 | 81 | 1021.7 |
| 20260831135945 | 63 | 238 | 0.0 | 0.0 | 0.00 | 0.30 | 0.26 | 80 | 1021.7 |
| 20260831135444 | 63 | 238 | 0.0 | 0.0 | 0.00 | 0.30 | 0.26 | 79 | 1021.5 |
| 20260831134943 | 63 | 238 | 0.0 | 0.0 | 0.00 | 0.30 | 0.26 | 78 | 1021.5 |
| 20260831134441 | 64 | 238 | 0.0 | 0.0 | 0.00 | 0.30 | 0.26 | 78 | 1021.3 |
| 20260831132934 | 64 | 238 | 0.0 | 0.0 | 0.00 | 0.30 | 0.26 | 76 | 1020.6 |
| 20260831132432 | 64 | 238 | 0.0 | 0.0 | 0.00 | 0.30 | 0.26 | 76 | 1020.4 |
| 20260831131930 | 64 | 238 | 0.0 | 0.0 | 0.00 | 0.30 | 0.26 | 74 | 1020.4 |
| 20260831130930 | 64 | 238 | 0.0 | 0.0 | 0.00 | 0.30 | 0.26 | 75 | 1020.4 |
| 20260831130430 | 64 | 238 | 0.0 | 0.0 | 0.00 | 0.30 | 0.26 | 75 | 1020.4 |
| 20260831125930 | 64 | 238 | 0.0 | 0.0 | 0.00 | 0.30 | 0.26 | 74 | 1020.5 |
| 20260831125428 | 64 | 238 | 0.0 | 0.0 | 0.00 | 0.30 | 0.26 | 74 | 1020.5 |
| 20260831124926 | 64 | 238 | 0.0 | 0.0 | 0.00 | 0.30 | 0.26 | 74 | 1020.4 |
| 20260831124426 | 63 | 238 | 0.0 | 2.0 | 0.00 | 0.30 | 0.26 | 70 | 1020.4 |
| 20260831123924 | 63 | 238 | 1.0 | 3.0 | 0.00 | 0.30 | 0.26 | 73 | 1020.1 |
| 20260831123422 | 63 | 238 | 2.0 | 3.0 | 0.00 | 0.30 | 0.26 | 72 | 1019.9 |
| 20260831122922 | 63 | 238 | 1.0 | 3.0 | 0.00 | 0.30 | 0.26 | 72 | 1019.7 |
| 20260831122423 | 64 | 246 | 2.0 | 4.0 | 0.00 | 0.30 | 0.26 | 72 | 1019.7 |
| 20260831121920 | 64 | 250 | 2.0 | 4.0 | 0.00 | 0.30 | 0.26 | 71 | 1019.7 |
| 20260831121421 | 65 | 229 | 1.0 | 4.0 | 0.00 | 0.30 | 0.26 | 70 | 1019.6 |
| 20260831120920 | 65 | 227 | 0.0 | 3.0 | 0.00 | 0.30 | 0.26 | 69 | 1019.7 |
| 20260831120420 | 64 | 213 | 0.0 | 2.0 | 0.00 | 0.30 | 0.26 | 70 | 1019.7 |
| 20260831115418 | 63 | 231 | 0.0 | 0.0 | 0.00 | 0.30 | 0.26 | 75 | 1019.7 |
| 20260831114416 | 63 | 231 | 0.0 | 2.0 | 0.00 | 0.30 | 0.26 | 76 | 1019.7 |
| 20260831113916 | 62 | 231 | 1.0 | 2.0 | 0.00 | 0.30 | 0.26 | 77 | 1019.7 |
| 20260831113417 | 62 | 231 | 1.0 | 3.0 | 0.00 | 0.30 | 0.26 | 77 | 1019.7 |
| 20260831112916 | 62 | 233 | 2.0 | 3.0 | 0.00 | 0.30 | 0.26 | 77 | 1019.7 |
| 20260831112417 | 62 | 238 | 1.0 | 3.0 | 0.00 | 0.30 | 0.26 | 78 | 1019.8 |
| 20260831111912 | 62 | 228 | 1.0 | 4.0 | 0.00 | 0.30 | 0.26 | 78 | 1019.9 |
| 20260831111413 | 62 | 238 | 2.0 | 6.0 | 0.00 | 0.30 | 0.26 | 78 | 1019.8 |
| 20260831110910 | 62 | 264 | 2.0 | 6.0 | 0.00 | 0.30 | 0.26 | 77 | 1019.9 |
| 20260831110410 | 62 | 252 | 2.0 | 3.0 | 0.00 | 0.30 | 0.26 | 78 | 1019.8 |
| 20260831105907 | 63 | 248 | 2.0 | 4.0 | 0.00 | 0.30 | 0.26 | 77 | 1019.8 |
| 20260831105406 | 63 | 237 | 2.0 | 4.0 | 0.00 | 0.30 | 0.26 | 78 | 1019.9 |
| 20260831104404 | 63 | 235 | 2.0 | 6.0 | 0.00 | 0.30 | 0.26 | 76 | 1019.9 |
| 20260831102902 | 63 | 231 | 0.0 | 2.0 | 0.00 | 0.30 | 0.26 | 80 | 1020.1 |
| 20260831102358 | 63 | 231 | 1.0 | 4.0 | 0.00 | 0.30 | 0.26 | 80 | 1020.5 |
| 20260831101354 | 63 | 265 | 1.0 | 4.0 | 0.00 | 0.30 | 0.26 | 82 | 1020.7 |
| 20260831100855 | 63 | 263 | 2.0 | 5.0 | 0.00 | 0.30 | 0.26 | 83 | 1020.8 |
| 20260831095852 | 62 | 250 | 2.0 | 3.0 | 0.00 | 0.30 | 0.26 | 85 | 1021.0 |
| 20260831095349 | 62 | 234 | 2.0 | 3.0 | 0.00 | 0.30 | 0.26 | 86 | 1021.3 |
| 20260831094348 | 62 | 232 | 1.0 | 3.0 | 0.00 | 0.30 | 0.26 | 86 | 1021.5 |
| 20260831090344 | 63 | 122 | 0.0 | 0.0 | 0.06 | 0.30 | 0.26 | 89 | 1022.5 |
| 20260831085844 | 63 | 100 | 0.0 | 0.0 | 0.09 | 0.30 | 0.26 | 88 | 1022.6 |
| 20260831084842 | 63 | 101 | 0.0 | 2.0 | 0.12 | 0.30 | 0.26 | 85 | 1022.4 |
| 20260831083843 | 63 | 201 | 0.0 | 3.0 | 0.14 | 0.30 | 0.26 | 83 | 1022.1 |
| 20260831083342 | 63 | 132 | 0.0 | 3.0 | 0.14 | 0.30 | 0.26 | 83 | 1021.7 |
| 20260831082840 | 63 | 124 | 0.0 | 2.0 | 0.15 | 0.30 | 0.26 | 84 | 1021.6 |
| 20260831081840 | 63 | 113 | 2.0 | 7.0 | 0.15 | 0.28 | 0.24 | 84 | 1021.9 |
| 20260831081339 | 64 | 146 | 4.0 | 10.0 | 0.15 | 0.27 | 0.23 | 83 | 1022.3 |
| 20260831080838 | 64 | 149 | 6.0 | 13.0 | 0.15 | 0.25 | 0.22 | 83 | 1022.6 |
| 20260831080338 | 64 | 165 | 7.0 | 15.0 | 0.18 | 0.24 | 0.20 | 83 | 1022.7 |
| 20260831075838 | 65 | 162 | 7.0 | 15.0 | 0.17 | 0.21 | 0.18 | 83 | 1022.8 |
| 20260831075338 | 65 | 150 | 8.0 | 15.0 | 0.15 | 0.19 | 0.16 | 83 | 1022.7 |
| 20260831074838 | 66 | 178 | 9.0 | 15.0 | 0.14 | 0.18 | 0.14 | 81 | 1022.5 |
| 20260831074336 | 66 | 154 | 10.0 | 17.0 | 0.13 | 0.17 | 0.13 | 80 | 1022.2 |
| 20260831073836 | 66 | 152 | 8.0 | 17.0 | 0.12 | 0.16 | 0.12 | 76 | 1021.9 |
| 20260831073337 | 66 | 159 | 6.0 | 13.0 | 0.12 | 0.16 | 0.12 | 77 | 1021.7 |
| 20260831072836 | 66 | 156 | 7.0 | 13.0 | 0.11 | 0.15 | 0.11 | 75 | 1021.6 |
| 20260831072336 | 67 | 195 | 8.0 | 14.0 | 0.10 | 0.14 | 0.10 | 73 | 1021.3 |
| 20260831071836 | 68 | 171 | 9.0 | 19.0 | 0.09 | 0.13 | 0.09 | 70 | 1020.8 |
| 20260831071334 | 69 | 164 | 12.0 | 25.0 | 0.08 | 0.12 | 0.08 | 74 | 1020.5 |
| 20260831070834 | 70 | 180 | 14.0 | 25.0 | 0.06 | 0.10 | 0.06 | 74 | 1020.0 |
| 20260831070333 | 71 | 128 | 14.0 | 31.0 | 0.02 | 0.06 | 0.02 | 73 | 1020.1 |
| 20260831065828 | 73 | 111 | 12.0 | 31.0 | 0.00 | 0.04 | 0.04 | 66 | 1019.9 |
| 20260831064325 | 80 | 55 | 3.0 | 8.0 | 0.00 | 0.04 | 0.04 | 54 | 1019.3 |
| 20260831063825 | 80 | 111 | 3.0 | 8.0 | 0.00 | 0.04 | 0.04 | 53 | 1019.0 |
| 20260831063325 | 80 | 88 | 3.0 | 8.0 | 0.00 | 0.04 | 0.04 | 52 | 1018.9 |
| 20260831062825 | 80 | 77 | 3.0 | 7.0 | 0.00 | 0.04 | 0.04 | 53 | 1018.9 |
| 20260831061824 | 79 | 71 | 1.0 | 5.0 | 0.00 | 0.04 | 0.04 | 54 | 1018.6 |
| 20260831061325 | 79 | 225 | 0.0 | 3.0 | 0.00 | 0.04 | 0.04 | 57 | 1018.5 |
| 20260831060827 | 80 | 55 | 0.0 | 0.0 | 0.00 | 0.04 | 0.04 | 55 | 1018.4 |
| 20260831060325 | 80 | 55 | 0.0 | 2.0 | 0.00 | 0.04 | 0.04 | 53 | 1018.4 |
| 20260831055825 | 80 | 55 | 0.0 | 2.0 | 0.00 | 0.04 | 0.04 | 53 | 1018.6 |
| 20260831055324 | 80 | 30 | 0.0 | 1.0 | 0.00 | 0.04 | 0.04 | 53 | 1018.6 |
| 20260831054317 | 80 | 30 | 0.0 | 4.0 | 0.00 | 0.04 | 0.04 | 53 | 1018.6 |
| 20260831053315 | 80 | 80 | 0.0 | 0.0 | 0.00 | 0.04 | 0.04 | 54 | 1018.8 |
| 20260831051810 | 80 | 80 | 1.0 | 2.0 | 0.00 | 0.04 | 0.04 | 53 | 1018.5 |
| 20260831051309 | 80 | 80 | 2.0 | 3.0 | 0.00 | 0.04 | 0.04 | 53 | 1018.4 |
| 20260831050807 | 80 | 80 | 2.0 | 4.0 | 0.00 | 0.04 | 0.04 | 52 | 1018.4 |
| 20260831050306 | 80 | 80 | 2.0 | 5.0 | 0.00 | 0.04 | 0.04 | 53 | 1018.4 |
| 20260831045805 | 80 | 78 | 2.0 | 5.0 | 0.00 | 0.04 | 0.04 | 53 | 1018.3 |
| 20260831045306 | 79 | 78 | 2.0 | 3.0 | 0.00 | 0.04 | 0.04 | 55 | 1018.4 |
| 20260831044802 | 79 | 82 | 1.0 | 3.0 | 0.00 | 0.04 | 0.04 | 56 | 1018.4 |
| 20260831044301 | 79 | 84 | 0.0 | 0.0 | 0.00 | 0.04 | 0.04 | 56 | 1018.5 |
| 20260831043259 | 79 | 84 | 0.0 | 0.0 | 0.00 | 0.04 | 0.04 | 56 | 1018.8 |
| 20260831041759 | 79 | 132 | 0.0 | 0.0 | 0.00 | 0.04 | 0.04 | 55 | 1019.1 |
| 20260831041300 | 79 | 132 | 0.0 | 0.0 | 0.00 | 0.04 | 0.04 | 55 | 1019.1 |
| 20260831040755 | 79 | 132 | 0.0 | 0.0 | 0.00 | 0.04 | 0.04 | 55 | 1019.0 |
| 20260831040254 | 79 | 144 | 0.0 | 0.0 | 0.00 | 0.04 | 0.04 | 55 | 1019.0 |
| 20260831035753 | 79 | 144 | 0.0 | 0.0 | 0.00 | 0.04 | 0.04 | 54 | 1019.0 |
| 20260831034749 | 80 | 132 | 0.0 | 2.0 | 0.00 | 0.04 | 0.04 | 54 | 1019.0 |
| 20260831033746 | 80 | 189 | 1.0 | 3.0 | 0.00 | 0.05 | 0.04 | 53 | 1018.8 |
| 20260831033247 | 80 | 178 | 1.0 | 4.0 | 0.00 | 0.05 | 0.04 | 53 | 1018.9 |
| 20260831032747 | 80 | 194 | 0.0 | 4.0 | 0.00 | 0.06 | 0.04 | 52 | 1018.5 |
| 20260831032243 | 81 | 161 | 0.0 | 2.0 | 0.00 | 0.06 | 0.04 | 51 | 1018.4 |
| 20260831031743 | 81 | 108 | 0.0 | 2.0 | 0.00 | 0.10 | 0.04 | 51 | 1018.2 |
| 20260831031246 | 81 | 108 | 1.0 | 3.0 | 0.00 | 0.10 | 0.04 | 50 | 1018.1 |
| 20260831030741 | 81 | 119 | 0.0 | 3.0 | 0.00 | 0.10 | 0.04 | 50 | 1018.0 |
| 20260831030240 | 81 | 86 | 1.0 | 3.0 | 0.00 | 0.10 | 0.04 | 50 | 1017.9 |
| 20260831025739 | 81 | 114 | 1.0 | 4.0 | 0.00 | 0.10 | 0.04 | 50 | 1017.9 |
| 20260831025239 | 82 | 120 | 1.0 | 4.0 | 0.00 | 0.10 | 0.04 | 49 | 1017.9 |
| 20260831024736 | 82 | 128 | 1.0 | 5.0 | 0.00 | 0.10 | 0.04 | 48 | 1017.7 |
| 20260831023735 | 82 | 118 | 2.0 | 6.0 | 0.00 | 0.10 | 0.04 | 48 | 1017.7 |
| 20260831023233 | 82 | 93 | 2.0 | 6.0 | 0.00 | 0.10 | 0.04 | 48 | 1017.7 |
| 20260831022732 | 82 | 133 | 2.0 | 5.0 | 0.00 | 0.10 | 0.04 | 48 | 1017.7 |
| 20260831022226 | 82 | 104 | 2.0 | 3.0 | 0.00 | 0.10 | 0.04 | 48 | 1017.7 |
| 20260831021727 | 82 | 103 | 1.0 | 3.0 | 0.00 | 0.10 | 0.04 | 48 | 1017.7 |
| 20260831021227 | 82 | 102 | 1.0 | 3.0 | 0.00 | 0.10 | 0.04 | 48 | 1017.6 |
| 20260831020728 | 83 | 120 | 1.0 | 3.0 | 0.00 | 0.10 | 0.04 | 47 | 1017.7 |
| 20260831020227 | 83 | 93 | 1.0 | 3.0 | 0.00 | 0.10 | 0.04 | 47 | 1017.7 |
| 20260831015726 | 83 | 101 | 1.0 | 3.0 | 0.00 | 0.10 | 0.04 | 47 | 1017.7 |
| 20260831015227 | 83 | 112 | 0.0 | 3.0 | 0.00 | 0.10 | 0.04 | 46 | 1017.7 |
| 20260831014227 | 83 | 123 | 0.0 | 2.0 | 0.00 | 0.10 | 0.04 | 46 | 1017.6 |
| 20260831013724 | 83 | 112 | 0.0 | 1.0 | 0.00 | 0.10 | 0.04 | 46 | 1017.6 |
| 20260831013223 | 83 | 126 | 0.0 | 1.0 | 0.00 | 0.10 | 0.04 | 45 | 1017.6 |
| 20260831012221 | 83 | 105 | 0.0 | 2.0 | 0.00 | 0.10 | 0.04 | 45 | 1017.5 |
| 20260831011720 | 84 | 105 | 0.0 | 2.0 | 0.00 | 0.10 | 0.04 | 45 | 1017.5 |
| 20260831011219 | 84 | 120 | 0.0 | 0.0 | 0.00 | 0.10 | 0.04 | 44 | 1017.4 |
| 20260831010717 | 84 | 120 | 0.0 | 0.0 | 0.00 | 0.10 | 0.04 | 45 | 1017.4 |
| 20260831010217 | 84 | 120 | 0.0 | 1.0 | 0.00 | 0.10 | 0.04 | 44 | 1017.5 |
| 20260831005715 | 84 | 120 | 0.0 | 2.0 | 0.00 | 0.10 | 0.04 | 44 | 1017.5 |
| 20260831005213 | 84 | 120 | 0.0 | 2.0 | 0.00 | 0.10 | 0.04 | 42 | 1017.5 |
| 20260831004712 | 85 | 123 | 0.0 | 2.0 | 0.00 | 0.10 | 0.04 | 44 | 1017.5 |
| 20260831004211 | 85 | 129 | 0.0 | 2.0 | 0.00 | 0.10 | 0.04 | 45 | 1017.5 |